Wind_Speed
50 49 50 48 45 41 36 33 34 34 33 30 28 26 25 25 26 25 24 24 25 30 36 40 41 37 33 34 38 38 36 36 35 35 34 32 30 29 29 29 29 29 31 34 33 31 31 31 32 32 32 32 30 29 28 27 27 27 26 25 25 26 25 23 22 22 21 21 21 21 21 21 21 20 19 19 19 20 20 20 21 21 21 21 20 20
51 50 49 47 45 41 36 36 37 36 34 33 31 29 28 27 26 26 26 26 26 26 29 35 39 40 36 34 37 40 38 36 36 36 35 34 32 30 29 28 28 29 33 34 33 32 32 31 32 33 33 33 32 31 30 29 29 30 29 27 27 28 27 26 25 24 24 24 24 23 23 23 22 21 20 20 21 22 22 22 23 23 22 21 21 20
53 51 48 46 45 42 38 38 39 38 36 35 34 33 31 28 25 26 28 27 28 27 26 30 35 38 39 37 37 40 39 37 37 38 37 36 34 32 29 28 29 30 32 33 32 32 32 32 32 33 33 34 34 34 33 31 32 31 30 29 30 29 29 29 28 27 27 27 26 25 25 24 23 23 22 23 23 24 24 24 24 24 22 22 21 21
56 52 47 43 42 39 36 36 39 39 38 37 36 35 33 30 27 27 28 28 29 28 27 29 32 35 38 39 40 41 40 38 39 39 38 38 36 33 31 30 30 30 31 31 31 32 32 32 32 33 34 35 35 35 33 33 33 33 32 32 32 31 30 30 30 30 30 29 28 27 26 26 25 25 25 25 25 26 26 26 25 24 23 23 22 23
55 50 44 41 40 37 36 37 39 40 39 38 38 37 35 31 29 28 28 28 29 29 28 29 32 34 34 37 40 42 41 39 40 41 40 38 37 36 34 32 32 31 30 31 31 31 32 31 31 32 34 34 34 33 33 34 35 34 33 33 33 32 32 32 32 32 32 31 30 29 28 28 27 27 28 28 28 28 28 28 26 25 25 24 24 25
54 51 47 45 41 38 38 38 40 41 40 40 39 38 36 32 30 29 29 29 29 30 30 30 33 34 32 34 37 41 44 41 40 42 41 39 38 38 37 34 33 32 31 31 31 32 32 31 32 33 33 33 33 33 35 36 36 35 34 34 34 33 32 33 33 34 34 33 32 31 30 30 30 30 30 30 30 30 30 29 28 27 26 26 26 27
54 51 50 48 44 40 40 40 41 42 42 42 39 37 35 33 31 30 30 32 32 31 31 32 35 35 32 31 34 39 45 44 40 41 41 41 40 39 38 36 35 34 33 33 33 33 33 32 33 33 33 33 33 34 37 37 36 36 36 36 35 34 34 34 34 34 34 34 33 33 32 32 32 31 32 33 33 32 32 31 30 29 29 28 28 29
55 52 50 48 45 43 41 40 40 41 42 40 36 36 36 34 32 33 35 36 35 34 33 34 36 37 33 29 30 35 42 44 42 40 40 41 42 40 39 38 37 36 35 36 36 35 35 34 34 34 34 35 34 36 37 37 36 37 37 38 37 36 35 35 35 34 34 34 34 34 34 33 33 33 33 34 34 33 33 33 32 32 31 30 30 31
54 51 47 44 42 42 40 37 37 39 41 39 37 38 38 36 35 38 39 39 38 38 38 36 37 40 36 30 29 33 39 44 43 40 40 41 42 42 40 39 39 39 38 39 39 38 38 37 35 35 35 36 35 36 36 36 36 37 37 37 37 36 35 35 35 35 34 34 35 35 35 34 34 34 35 35 35 34 34 35 34 34 34 33 33 33
52 48 45 43 43 43 41 39 39 40 41 40 39 40 40 39 40 41 43 42 41 42 40 38 38 40 38 31 30 33 36 42 44 41 40 42 43 43 43 41 41 41 41 41 41 40 40 39 37 36 36 36 35 35 36 35 35 36 36 36 36 36 36 36 36 36 36 36 36 36 35 35 35 35 36 36 35 35 36 36 36 36 36 35 34 34
50 47 47 48 49 48 46 46 45 44 45 44 43 42 43 43 43 44 44 44 44 44 43 40 37 39 39 30 28 32 33 37 43 44 42 42 43 44 45 44 42 43 44 43 43 41 41 41 39 38 36 36 36 36 36 35 35 36 36 36 36 36 37 37 38 38 38 37 37 36 36 35 35 36 36 36 36 36 37 37 38 38 37 37 36 36
51 50 50 52 52 51 50 49 48 48 48 48 45 44 45 45 45 46 46 47 47 45 43 39 34 37 39 30 23 26 28 31 38 44 44 44 45 45 46 46 45 45 45 44 44 43 42 42 42 40 39 38 37 37 37 37 37 37 37 37 37 37 38 38 39 39 38 38 37 36 36 35 35 36 36 36 36 37 37 38 38 39 38 38 38 38
56 55 54 54 53 53 52 50 49 50 50 49 48 47 47 48 47 47 48 48 47 43 40 36 33 35 37 33 28 25 25 28 32 39 43 44 45 45 46 48 48 47 46 45 44 44 44 44 43 43 41 40 40 39 39 39 39 38 38 38 38 38 38 39 39 39 39 39 38 37 37 37 37 37 37 37 37 37 38 39 39 39 39 39 39 39
61 60 58 57 56 56 54 53 51 50 48 47 46 44 44 44 44 45 45 45 44 41 38 36 35 38 37 36 36 31 27 27 29 33 38 41 44 45 45 47 49 48 47 47 46 46 45 45 45 45 43 43 42 41 41 41 40 40 39 40 39 39 39 39 40 40 40 40 39 39 39 39 38 38 38 38 38 39 39 39 39 40 40 40 40 41
60 60 58 57 56 55 53 51 49 46 44 43 42 42 42 42 43 44 43 43 42 40 38 37 39 40 36 35 37 34 29 27 27 29 33 36 40 43 44 45 48 49 49 48 48 48 48 47 46 46 46 44 44 43 42 42 42 41 41 41 41 41 41 41 41 41 41 40 40 40 40 40 40 39 39 39 40 40 40 40 40 41 40 41 41 42
58 57 56 55 54 53 52 50 49 48 47 46 46 46 45 44 45 45 44 43 41 40 40 40 41 40 36 35 38 38 33 29 28 29 30 33 36 40 43 44 45 48 50 50 50 49 49 49 48 47 47 46 45 44 44 43 43 43 43 42 42 42 42 42 42 42 42 42 41 42 41 41 41 41 41 41 41 42 42 42 42 41 41 41 42 43
59 56 55 54 53 53 53 52 51 50 49 48 48 47 45 45 44 44 44 43 42 43 44 44 43 39 36 36 37 39 37 33 30 30 30 32 33 35 38 41 44 47 49 51 52 52 51 50 49 48 48 47 46 45 45 44 44 44 44 43 43 43 43 43 43 43 43 43 43 43 43 43 43 43 43 43 43 43 43 43 42 42 42 43 43 44
56 55 54 53 52 51 50 50 50 49 48 47 45 43 41 42 43 43 44 44 44 46 46 45 43 39 37 36 35 37 38 35 32 31 31 32 34 35 36 39 43 46 48 50 52 53 53 51 50 49 48 48 47 46 46 45 45 44 44 44 44 44 44 43 44 44 44 44 44 44 44 44 44 44 44 45 45 44 44 44 43 43 43 44 45 45
53 53 52 51 50 50 49 49 48 48 48 46 44 42 42 44 45 45 45 46 45 45 45 44 42 40 38 36 34 36 38 37 35 34 33 34 35 36 37 38 40 44 46 48 49 51 51 51 50 49 48 48 47 46 45 45 45 45 45 45 45 45 45 45 44 45 45 45 45 45 45 45 45 45 46 46 46 46 45 45 45 45 45 45 47 47
53 54 53 52 50 50 51 51 51 49 48 46 45 45 46 47 46 45 46 46 45 45 45 46 45 42 39 36 35 36 37 37 37 36 34 34 36 37 37 38 39 41 43 45 46 48 49 49 49 49 49 48 48 47 46 46 45 45 45 46 46 46 46 46 46 46 46 46 46 46 46 46 46 47 47 47 47 47 47 47 47 47 47 48 49 49
54 54 54 52 52 51 51 50 49 48 45 43 43 43 43 44 44 44 45 45 46 46 47 48 48 45 38 35 36 36 37 37 38 38 36 35 36 36 36 38 39 40 40 42 44 46 47 48 48 48 49 49 49 48 48 48 48 47 47 46 46 46 47 47 47 47 47 47 47 47 47 47 48 48 48 48 48 48 48 48 48 49 49 50 50 51
56 55 53 53 52 51 49 47 45 45 43 42 42 42 41 41 42 43 45 45 46 46 46 46 49 47 39 35 36 35 36 37 37 39 39 38 38 36 36 39 40 40 40 40 42 44 47 48 48 48 48 48 48 48 48 48 48 48 49 48 48 47 47 46 46 46 46 47 47 47 47 47 48 48 49 49 49 49 49 49 50 50 51 51 52 52
58 56 54 53 51 49 48 46 46 45 44 44 44 43 44 46 46 47 47 46 45 45 44 45 49 49 40 34 34 33 34 37 36 36 38 39 40 39 36 38 40 41 40 40 40 41 43 46 48 49 48 48 48 48 47 47 47 47 47 48 48 48 48 47 46 46 46 45 46 46 46 47 47 48 49 49 50 50 50 51 51 52 52 53 53 53
58 57 55 53 50 48 46 45 45 45 46 47 47 47 48 49 47 46 45 45 45 44 43 42 45 47 39 31 30 31 33 37 37 36 36 38 39 40 37 36 39 41 41 41 40 39 39 41 44 46 48 49 50 49 49 48 47 47 46 46 47 47 47 47 46 46 46 46 46 46 46 47 47 48 49 49 50 51 51 52 52 53 53 53 54 54
57 58 57 55 53 51 49 48 48 48 49 50 50 50 49 47 45 44 42 42 42 40 38 38 40 41 36 30 30 32 34 36 38 36 36 37 38 40 39 38 38 39 41 42 42 40 40 39 40 42 44 46 48 50 50 50 49 48 47 47 47 47 47 47 47 47 47 47 47 47 47 48 49 49 50 50 51 52 52 53 53 53 53 54 54 55
56 57 55 55 55 52 50 49 48 47 49 49 48 46 44 41 40 38 36 37 36 34 36 39 39 37 33 31 34 36 34 34 36 36 36 37 39 41 42 41 40 39 41 42 43 43 42 41 41 41 42 43 44 46 48 50 50 50 49 49 49 48 48 48 48 48 48 48 48 48 49 49 50 50 51 51 52 52 53 53 53 53 54 54 55 55
55 55 53 52 50 46 44 42 41 41 42 41 38 37 35 34 33 33 35 36 35 35 39 40 37 34 32 33 36 38 37 36 36 37 38 39 40 42 43 43 43 42 42 43 44 45 44 43 42 42 43 43 43 44 46 48 50 51 52 52 51 51 50 50 49 48 48 48 48 48 48 48 49 49 50 51 51 51 52 52 53 53 53 54 54 53
55 54 53 51 48 47 45 43 42 41 39 36 32 31 31 31 32 35 39 39 37 40 42 37 34 34 34 35 37 39 41 41 40 40 41 41 42 43 44 46 46 45 45 44 45 46 46 47 46 46 46 45 45 45 46 47 48 50 51 52 53 53 53 53 52 51 50 50 49 49 48 48 48 49 49 50 50 50 51 51 52 52 52 52 52 52
55 53 51 50 49 49 48 46 46 44 41 37 34 34 34 36 38 41 42 39 39 41 39 33 33 36 35 35 37 38 41 44 43 43 43 42 42 43 44 47 48 48 48 47 47 47 47 48 49 50 49 48 47 47 47 47 47 48 49 50 51 52 53 53 54 53 53 52 52 51 51 51 50 50 50 50 51 51 52 52 52 53 53 54 54 54
55 53 52 51 50 49 48 47 47 46 43 42 39 39 40 41 42 42 40 38 40 40 36 33 36 35 33 34 36 36 39 44 44 43 42 41 42 43 45 46 47 48 49 49 49 49 49 50 51 52 51 50 50 49 49 48 48 48 48 48 48 48 49 49 50 51 52 52 52 52 53 53 53 53 53 53 54 54 55 55 55 56 56 57 57 58
56 56 56 55 52 51 50 48 48 48 46 45 43 43 44 45 45 43 40 40 42 40 35 36 38 35 33 35 37 37 40 44 45 44 43 42 41 41 43 44 45 46 48 49 50 50 51 52 52 52 53 53 52 52 51 51 50 50 49 49 48 48 48 48 49 49 50 51 52 52 53 54 55 55 55 56 56 57 57 58 58 59 59 60 60 60
59 60 60 57 55 54 52 50 49 48 47 46 46 45 47 48 47 45 42 41 42 39 37 40 41 36 32 32 35 38 42 44 45 45 44 42 41 39 41 42 43 44 45 46 47 49 50 51 52 52 53 54 55 55 54 54 53 52 51 51 50 50 50 50 50 51 51 52 52 53 54 55 55 56 57 57 58 58 59 59 59 59 58 57 56 55
61 61 61 59 56 54 52 50 48 47 48 49 47 46 47 48 46 44 43 43 42 41 41 43 41 35 31 31 34 38 42 43 43 43 42 41 41 41 41 41 40 41 41 42 43 44 47 49 51 53 54 55 56 56 56 56 55 55 54 54 53 53 53 53 54 54 54 55 55 56 57 57 57 58 58 58 58 57 56 56 55 54 53 51 50 49
59 59 60 58 54 53 53 50 48 49 51 49 45 44 45 45 43 43 44 43 43 42 44 44 41 37 36 35 35 37 39 41 42 43 43 43 42 42 41 40 39 39 39 40 41 42 44 47 49 51 53 53 54 55 55 55 55 55 55 55 55 55 55 56 56 56 57 57 57 57 57 57 56 56 55 54 53 53 52 51 50 49 49 48 48 48
56 56 57 55 53 54 53 52 52 52 49 44 41 41 42 41 42 44 44 44 45 45 45 44 40 37 36 35 35 37 40 42 44 44 45 45 44 43 42 39 39 39 40 41 42 43 45 46 47 48 48 49 49 49 49 49 49 50 50 50 50 51 51 51 52 52 52 52 52 51 51 51 50 50 50 50 50 49 49 49 49 49 49 49 49 50
56 56 57 57 56 55 55 55 54 49 44 40 40 42 42 43 44 47 47 45 44 44 43 39 36 35 37 38 39 42 45 47 47 46 45 46 46 45 43 40 40 42 44 45 45 46 45 44 43 42 42 42 42 42 42 42 42 42 42 43 43 43 44 44 45 45 46 46 46 47 47 47 47 48 48 48 49 49 49 49 49 50 50 50 51 51
59 55 53 54 55 52 52 53 49 45 43 42 43 43 44 44 43 43 42 41 39 40 40 38 37 38 40 42 45 47 50 50 50 48 46 45 44 43 43 44 45 46 46 45 45 44 42 41 40 39 39 38 39 39 40 40 40 40 40 41 41 42 42 42 43 43 44 45 45 46 46 46 47 47 48 48 48 49 49 50 50 50 51 51 52 52
62 58 52 52 52 49 49 49 48 49 47 42 41 42 42 43 40 38 42 42 39 41 43 42 42 43 44 46 48 48 49 50 50 47 43 42 42 44 45 46 47 47 46 45 44 44 43 42 41 40 38 38 39 39 39 40 40 40 40 40 40 40 40 40 41 41 42 43 44 44 44 45 45 46 46 47 48 49 49 50 51 51 52 53 53 54
63 61 57 56 56 54 53 54 56 56 47 38 40 44 45 44 39 40 47 41 32 39 47 46 45 45 45 47 47 46 47 49 47 44 42 43 47 48 46 44 45 46 47 46 46 45 44 43 41 40 38 37 37 38 37 37 37 37 37 37 37 37 37 38 39 39 40 41 42 42 43 43 44 45 46 47 47 48 49 50 51 51 52 53 53 54
65 64 63 63 61 59 60 61 63 59 47 41 44 48 49 47 44 48 48 34 26 38 46 43 43 44 44 45 45 44 46 47 44 43 45 48 50 48 45 43 44 45 45 46 46 44 43 43 42 40 39 38 37 36 36 36 35 36 36 37 37 38 38 39 39 40 41 41 42 43 43 43 44 45 45 46 47 47 48 48 49 50 51 52 53 54
67 67 67 65 64 64 64 64 63 55 45 44 48 50 51 53 53 52 44 33 32 40 39 37 40 42 41 43 44 43 44 43 43 45 46 47 48 46 44 43 43 44 45 46 46 45 45 44 43 42 40 39 37 37 36 37 37 37 38 38 39 39 39 39 40 40 40 41 41 42 42 43 43 44 45 46 46 47 47 48 49 50 50 51 53 54
67 67 67 66 67 67 66 65 63 52 41 44 51 53 56 58 54 46 39 36 38 37 33 35 39 39 40 42 43 43 44 43 44 45 45 45 46 46 45 44 43 43 44 45 46 46 46 44 43 42 40 39 39 39 39 39 39 39 39 38 38 38 38 38 39 39 39 40 40 41 41 42 43 44 45 46 46 47 48 48 49 50 50 51 52 53
64 65 67 66 66 66 67 69 62 44 33 40 50 50 48 47 43 40 39 39 37 34 34 37 39 39 39 40 40 41 42 42 43 44 43 44 45 45 46 45 43 42 42 43 44 45 44 44 42 42 41 41 41 41 40 40 39 39 39 38 38 38 38 38 39 39 39 40 40 41 42 42 43 43 44 44 44 45 46 47 48 49 50 51 52 53
61 62 64 63 63 66 67 62 48 31 25 33 41 40 37 38 39 39 39 38 36 36 37 37 38 39 40 40 41 42 42 42 43 43 43 44 44 45 46 45 44 43 42 42 43 44 44 44 44 43 43 42 42 41 40 40 40 40 40 40 40 40 41 41 41 41 41 41 41 41 41 41 41 41 41 41 42 43 44 45 46 48 49 50 51 52
62 61 62 62 62 64 62 55 46 39 37 38 40 40 40 41 43 43 42 39 38 37 37 36 38 39 39 41 42 43 43 44 44 43 44 45 45 45 45 46 46 45 44 44 44 44 45 45 45 45 44 43 42 42 41 42 42 42 42 42 42 42 43 43 43 43 43 43 42 42 42 42 41 42 42 43 44 44 45 46 47 48 48 50 51 51
56 59 61 61 62 62 60 57 54 52 50 48 48 48 46 45 46 46 45 43 41 39 38 37 37 38 39 41 41 42 44 45 45 45 46 46 45 46 45 46 46 46 46 46 46 46 46 46 46 46 45 44 43 43 43 44 44 44 44 44 44 45 45 45 46 45 45 45 45 45 45 45 46 46 47 48 48 48 48 48 49 49 49 50 50 51
50 54 58 61 62 62 58 55 52 52 52 52 52 51 49 48 48 47 46 45 43 42 40 38 38 39 41 42 43 45 46 47 47 47 46 46 46 46 46 47 48 48 49 49 48 48 48 47 47 46 46 46 46 46 46 46 46 46 46 46 46 47 47 47 47 47 47 47 47 47 47 48 49 50 50 51 51 51 50 50 50 50 50 50 51 52
45 48 53 55 56 55 51 49 49 50 51 51 51 51 51 50 49 47 46 45 45 44 43 42 43 44 45 46 47 48 48 49 49 48 47 47 47 47 48 49 50 50 50 50 49 49 49 48 48 48 48 48 48 48 48 48 47 47 48 48 48 49 49 49 48 47 47 47 47 47 48 48 49 49 50 51 51 51 51 51 52 52 52 52 53 53
44 46 46 45 45 46 45 45 48 50 50 50 51 50 49 49 48 46 46 47 46 45 45 46 48 48 48 49 49 49 49 50 50 49 50 50 49 50 51 51 52 52 51 50 50 50 50 50 50 50 50 51 51 51 51 50 50 50 49 50 50 51 51 50 49 48 48 48 48 48 48 49 49 49 50 51 51 52 52 53 54 54 54 55 55 56
48 47 44 43 45 45 43 43 47 51 51 50 49 48 47 48 49 48 47 47 46 44 45 47 49 49 50 50 50 50 51 51 51 52 53 53 52 53 53 53 53 53 52 51 51 51 51 51 52 52 53 53 53 54 54 53 53 52 51 51 51 52 52 52 51 51 50 50 50 50 50 50 51 51 52 53 53 54 55 55 56 56 56 57 57 58
47 45 43 44 44 41 40 43 47 50 50 49 47 48 49 51 52 51 48 46 45 45 47 50 51 51 51 51 51 51 52 53 53 54 55 55 56 56 55 54 54 53 52 52 52 52 52 53 53 54 55 55 56 57 57 57 57 55 53 52 52 52 53 53 53 53 53 52 52 52 52 52 53 53 54 55 55 56 56 57 57 58 58 59 59 60
Wind_Direction
230 229 227 226 227 229 229 231 232 231 232 234 235 233 233 235 233 230 231 236 239 240 239 239 240 236 227 228 234 233 230 231 233 234 235 236 236 235 235 234 233 231 231 233 233 232 234 235 236 238 238 237 238 239 240 241 241 240 237 236 237 240 243 245 248 251 256 261 266 270 275 278 282 287 289 287 284 282 282 282 283 283 284 286 289 291
230 230 230 230 231 230 227 228 231 231 230 231 233 233 234 236 236 235 234 236 238 241 241 240 240 238 233 231 237 238 232 230 233 235 236 236 237 236 237 238 237 235 236 237 236 234 234 236 238 239 240 240 240 241 241 242 243 244 243 241 240 242 245 248 250 253 257 260 264 269 274 280 283 286 285 282 280 279 280 281 281 282 284 287 288 289
228 227 230 232 233 230 226 226 229 230 229 230 232 233 235 236 237 239 241 241 242 243 243 243 241 239 236 234 239 243 239 232 232 235 238 238 238 237 238 240 240 238 240 241 240 239 238 237 238 240 241 242 241 242 242 243 245 247 248 247 246 246 248 251 254 256 259 261 265 270 276 281 283 283 281 279 278 277 278 279 281 283 285 286 286 285
230 230 233 236 236 234 229 228 231 232 232 231 233 235 236 237 238 242 245 247 249 248 246 246 245 241 237 234 237 245 245 238 233 234 237 239 239 239 238 239 241 241 241 243 243 243 242 241 241 241 242 242 242 243 245 245 247 248 250 251 251 251 252 254 257 260 262 265 269 274 277 280 281 281 280 278 276 276 277 279 282 284 284 284 284 282
232 233 236 237 237 235 230 228 231 233 233 233 234 236 237 237 239 243 247 249 251 252 250 249 248 245 240 236 236 243 248 244 239 236 235 238 240 239 238 239 241 243 243 243 244 245 244 243 243 242 243 244 244 245 246 246 248 249 250 253 255 256 257 258 261 263 265 269 272 275 277 280 280 280 279 278 277 277 279 281 282 283 283 283 283 282
233 234 235 235 234 233 229 227 229 232 233 232 234 237 238 237 237 242 248 250 251 253 252 250 250 248 245 241 236 240 247 247 244 241 236 236 239 240 239 239 240 243 245 245 246 246 245 243 243 243 244 245 245 245 246 246 247 248 250 253 255 257 258 259 261 264 267 270 272 274 276 279 280 280 280 279 279 280 281 282 283 283 282 282 282 282
233 234 235 235 234 233 230 227 228 230 232 232 233 236 237 237 237 239 244 249 251 253 254 254 254 251 247 246 241 238 243 247 248 246 241 237 238 241 241 240 239 241 244 246 247 246 246 244 243 244 244 244 244 244 246 247 249 250 251 253 254 255 257 259 261 264 267 270 272 274 275 277 278 280 279 279 280 281 282 283 283 283 282 282 282 282
233 235 235 236 236 235 234 233 231 231 233 234 234 235 237 238 237 237 240 244 249 252 254 256 258 257 249 246 245 241 241 245 249 250 247 240 238 241 242 241 240 240 241 244 246 247 247 246 244 244 245 245 244 245 247 249 251 253 254 255 256 257 258 260 261 263 265 268 270 272 274 275 277 277 277 278 280 282 282 283 283 282 282 282 281 282
234 235 236 238 238 238 238 238 236 234 235 235 234 235 237 237 237 239 241 243 246 250 252 254 258 261 255 245 244 245 242 243 246 249 250 245 241 242 243 242 241 241 241 242 244 246 247 248 247 245 246 247 247 248 251 252 253 254 256 257 258 259 259 260 261 262 263 265 267 269 272 274 275 275 276 278 280 281 282 282 282 282 282 282 282 282
233 234 234 235 236 237 236 237 236 234 236 235 233 234 235 236 237 240 243 244 246 249 251 252 256 263 263 251 243 247 247 243 241 242 245 246 245 244 244 244 243 242 242 243 244 245 247 248 249 247 248 249 250 251 253 253 254 255 256 257 258 259 259 259 260 261 262 263 265 267 270 272 273 274 276 278 280 281 282 281 282 282 282 282 282 283
228 229 230 232 234 235 234 234 233 233 233 233 231 231 233 235 236 239 244 245 248 251 253 253 254 263 268 260 246 246 249 246 241 239 239 243 247 247 246 245 244 244 244 245 246 246 247 248 249 248 248 248 249 251 252 253 254 255 256 257 257 258 259 260 261 262 263 264 266 267 269 270 271 273 275 278 279 280 280 280 281 281 282 282 283 283
225 226 228 230 232 234 234 235 235 235 235 234 231 229 231 234 236 239 243 245 248 252 254 255 255 262 268 271 261 251 249 247 244 243 241 242 246 248 247 245 244 245 246 246 248 248 248 248 248 248 248 247 248 249 250 251 252 253 255 257 258 259 261 262 263 265 266 267 268 268 269 270 271 272 274 276 277 277 278 278 279 280 281 281 282 282
225 226 228 229 230 232 233 235 236 237 238 237 234 230 230 233 236 238 242 247 250 253 257 258 258 262 270 276 273 261 253 250 247 246 246 245 246 247 248 247 244 245 247 248 248 248 248 248 249 249 248 248 248 249 249 250 251 252 254 257 258 259 261 263 265 267 268 269 269 269 270 270 271 273 274 275 275 276 276 277 278 279 280 280 280 280
225 225 226 227 229 231 232 234 235 237 239 241 241 238 238 241 245 248 251 254 257 259 260 261 261 263 268 271 271 264 256 253 251 249 249 248 247 247 248 248 246 245 247 249 248 248 248 248 249 249 249 248 248 249 250 251 253 253 254 256 258 259 261 263 265 267 268 269 269 270 271 272 273 274 275 275 275 276 276 277 277 278 278 278 278 279
229 229 230 230 231 232 234 235 236 237 237 239 240 239 240 244 248 251 253 254 256 257 256 255 256 260 264 266 268 266 259 254 254 252 251 250 248 247 248 248 247 246 246 247 248 248 248 247 248 249 249 249 248 249 250 252 253 254 255 256 258 259 260 262 264 265 267 267 268 269 271 272 274 274 275 275 275 276 276 277 277 277 277 278 278 278
230 232 233 234 235 235 235 236 237 238 237 236 236 236 237 239 242 244 247 249 250 251 252 254 257 261 263 263 264 265 261 257 256 255 254 252 249 248 248 248 248 247 246 246 246 247 248 248 248 248 249 249 250 250 250 251 253 254 255 256 257 259 260 261 262 263 264 265 266 268 270 272 273 274 274 275 275 275 276 276 276 277 277 277 277 277
227 228 229 229 232 233 234 234 235 236 237 238 239 241 242 242 243 246 248 250 251 252 255 258 260 262 261 261 261 263 263 261 258 257 256 255 253 251 248 247 248 247 246 246 245 245 246 248 249 249 249 250 251 252 252 252 253 254 255 256 257 258 259 261 262 262 263 264 266 268 270 271 273 273 274 274 274 274 274 275 276 276 277 276 276 276
227 228 227 227 229 231 232 233 233 234 235 238 240 243 245 245 246 248 249 250 251 253 255 256 258 259 258 259 260 261 264 264 262 260 257 256 255 253 251 248 248 249 249 249 247 246 246 247 249 250 251 252 252 253 253 253 254 254 255 256 257 258 259 260 261 262 263 264 266 267 269 270 271 272 272 273 273 274 274 275 275 275 275 275 276 276
226 226 227 227 227 228 229 231 232 233 235 237 238 237 239 242 244 246 248 250 251 253 255 256 256 256 256 258 259 259 262 265 265 262 260 259 256 254 253 251 251 251 252 252 251 249 248 248 249 250 250 251 251 252 253 253 253 254 255 256 257 258 259 260 260 261 262 263 264 266 267 268 270 271 271 272 272 273 274 274 274 274 275 275 275 276
222 223 224 224 225 226 227 229 231 233 233 234 234 233 235 238 240 242 244 247 249 251 254 255 255 256 257 259 259 259 260 262 264 263 260 258 257 256 254 253 252 251 250 251 252 250 248 248 249 249 249 249 249 249 250 251 252 253 254 255 256 257 258 259 259 260 261 262 263 265 266 268 269 270 270 271 272 272 273 273 274 274 274 275 275 276
219 222 222 222 223 225 227 229 232 233 232 232 233 235 237 239 241 243 244 246 249 251 253 255 256 257 258 257 257 258 259 260 261 263 262 259 258 258 255 253 253 252 250 249 249 248 247 248 248 249 249 249 249 250 250 250 252 253 254 256 256 257 257 258 259 260 261 262 264 265 266 267 268 268 269 270 271 271 272 273 273 274 274 275 276 277
217 219 221 222 223 225 228 228 228 228 229 230 232 234 237 240 241 242 244 245 248 250 252 254 256 256 254 254 256 257 259 260 262 264 267 267 265 262 257 253 252 252 252 250 249 247 246 246 247 249 250 251 252 252 253 253 253 253 254 255 256 257 257 258 259 259 261 262 263 264 265 266 266 267 267 268 269 269 270 271 272 273 274 275 276 277
215 215 218 220 220 222 223 223 224 227 228 229 231 233 234 236 237 238 240 242 244 246 249 252 255 255 254 256 259 260 260 261 263 266 269 271 271 270 264 256 253 252 252 252 252 251 249 247 247 248 249 250 251 252 253 254 254 254 254 255 256 257 258 259 260 260 261 262 263 264 264 265 266 266 267 267 268 269 270 271 272 273 274 276 277 278
215 214 216 218 219 220 221 222 223 226 228 230 233 234 235 236 238 239 241 242 244 246 249 253 255 256 258 260 262 263 263 262 262 264 265 267 269 271 269 262 256 253 253 253 253 253 253 252 251 250 250 251 251 252 253 255 256 256 256 256 257 257 258 259 260 262 262 263 264 264 265 265 266 267 268 269 269 270 271 272 273 274 275 276 277 277
217 216 216 217 218 218 218 219 223 227 231 234 235 235 236 237 239 241 243 245 247 250 253 255 257 259 261 262 258 257 259 260 261 262 263 264 266 268 268 266 261 257 255 254 254 253 253 253 253 252 252 252 252 252 253 254 255 256 256 257 257 258 259 260 260 261 262 263 264 264 265 265 266 267 268 269 270 271 272 272 274 274 275 275 276 277
220 221 220 220 222 223 225 230 235 239 241 241 240 240 240 241 244 247 249 250 252 253 254 256 258 258 259 259 256 255 257 259 261 262 262 263 265 266 266 266 265 261 256 254 253 254 253 252 251 251 252 252 251 252 252 252 253 254 255 256 256 257 258 259 260 261 262 262 263 264 264 265 266 266 267 268 268 269 270 271 272 273 274 275 275 276
221 224 226 227 229 233 237 242 245 246 246 247 249 249 247 247 249 249 247 248 250 250 251 254 257 255 254 255 256 258 261 261 261 262 262 261 261 263 264 265 264 260 256 252 250 250 251 250 249 249 250 250 250 250 250 251 252 252 253 254 255 256 257 258 258 259 260 261 261 262 263 264 264 265 265 266 267 268 269 270 271 272 273 274 275 276
222 224 225 227 229 231 232 234 235 238 241 243 244 244 244 245 245 242 241 243 245 246 250 254 255 254 254 255 256 259 263 264 263 263 263 262 261 263 264 264 263 260 257 254 251 250 250 250 250 250 250 249 249 249 249 250 250 251 252 253 254 255 256 257 257 258 259 260 261 262 262 263 263 264 265 265 266 267 268 269 269 270 271 272 273 274
224 225 226 228 229 229 229 230 230 232 234 234 233 235 238 239 237 236 239 243 245 248 252 253 252 253 254 255 258 261 265 268 268 267 267 265 264 264 263 262 262 262 262 260 257 254 253 252 252 251 249 248 247 247 248 249 250 251 252 253 253 254 255 256 257 258 259 260 261 262 263 263 264 264 264 264 264 265 265 266 267 268 269 270 272 273
222 223 225 228 230 231 232 231 230 231 229 228 229 231 233 235 235 237 240 243 245 247 248 247 249 252 254 256 260 264 268 271 271 270 270 267 264 261 261 262 265 267 267 264 261 259 259 256 253 250 249 248 248 248 249 250 251 252 253 254 255 255 256 257 258 259 260 261 262 262 263 263 264 264 264 264 265 266 266 267 268 269 271 272 274 276
219 219 220 223 226 228 229 229 229 229 227 226 227 229 231 234 237 238 239 240 244 246 248 252 254 254 257 261 262 263 265 267 269 270 270 267 264 262 263 266 269 270 269 267 265 264 263 260 255 251 250 250 251 252 252 253 254 254 255 255 257 258 258 259 259 260 261 261 262 262 262 263 263 264 265 266 267 268 269 270 271 273 275 276 278 279
218 219 219 220 222 223 224 226 227 227 226 227 228 229 233 237 240 242 243 247 251 254 255 258 259 260 262 263 261 260 261 263 266 268 268 267 266 265 266 269 271 271 270 270 270 269 266 262 258 256 254 254 254 254 253 254 255 255 256 257 258 259 260 260 261 261 262 263 264 265 265 266 267 268 269 270 271 272 273 275 276 277 278 279 280 281
219 220 220 221 223 223 223 225 227 227 228 229 230 234 239 243 246 250 252 254 258 259 259 260 261 262 259 256 256 257 259 260 263 265 266 268 269 270 272 272 272 272 271 270 269 266 264 262 261 260 259 258 257 256 255 255 256 256 257 258 260 261 262 263 263 264 265 266 267 268 269 271 272 273 274 275 276 277 278 279 279 280 280 280 281 282
225 225 224 225 225 226 227 227 227 229 231 233 237 242 246 249 254 257 258 259 261 261 260 259 259 257 254 254 257 259 261 263 264 265 266 268 270 272 273 272 270 269 268 267 266 264 263 263 262 262 261 260 259 259 260 260 261 261 262 262 263 263 264 265 265 266 267 268 269 271 272 273 274 275 276 277 277 278 279 279 280 280 280 281 281 282
230 231 231 230 229 229 229 229 230 233 238 241 243 246 250 254 258 259 258 257 256 255 256 255 255 256 258 259 259 260 263 265 263 262 263 265 268 270 270 270 270 270 270 268 267 266 265 265 264 264 264 265 265 266 266 267 268 268 268 268 268 268 268 268 269 269 270 271 271 272 272 273 273 274 275 275 276 277 278 279 279 280 281 281 281 282
228 231 233 233 234 233 232 233 237 243 244 243 244 246 250 254 254 253 252 251 251 252 254 254 255 256 257 256 256 259 263 265 264 265 269 270 271 271 270 270 271 272 271 271 270 270 269 270 270 271 272 272 273 272 271 271 271 271 271 271 271 272 272 272 272 272 272 272 272 272 273 273 273 274 274 275 276 277 277 278 278 279 279 280 280 281
225 229 230 232 233 234 234 236 239 243 242 240 242 246 248 250 250 252 253 251 250 253 254 254 254 253 254 257 261 264 266 268 269 273 277 275 271 268 267 268 269 270 271 273 273 273 273 273 273 272 272 272 272 271 271 271 272 272 272 272 273 273 274 274 274 274 274 275 275 275 276 276 276 276 276 276 277 277 277 277 277 277 278 278 279 280
223 225 226 228 230 230 233 234 235 236 236 238 241 243 242 242 244 250 252 249 247 252 256 257 257 259 261 265 268 269 269 270 272 274 277 276 272 269 268 269 269 269 270 271 271 272 271 271 271 271 270 270 269 270 271 271 272 273 273 273 274 275 276 276 276 277 277 277 278 279 280 280 279 279 278 278 278 277 277 277 277 278 278 279 280 281
223 224 225 229 230 231 234 236 235 235 236 236 238 237 237 240 243 248 251 251 251 255 258 260 262 265 267 269 269 269 270 273 275 274 274 274 273 273 273 272 270 269 269 269 270 270 270 270 270 270 268 267 266 267 268 269 271 272 273 274 275 276 277 277 278 278 279 279 280 280 280 280 280 279 279 279 279 279 279 279 280 280 281 281 281 281
220 223 226 228 229 230 233 236 235 234 231 231 234 235 238 243 244 245 250 258 262 258 260 264 267 269 269 270 270 271 273 276 276 273 271 271 273 274 274 272 271 271 270 270 270 269 269 269 268 267 265 264 264 265 266 268 269 271 273 274 275 276 277 277 278 278 278 279 279 279 279 279 279 279 279 280 280 280 281 281 281 282 282 282 282 282
219 222 225 226 227 228 232 236 236 233 229 230 233 235 239 242 242 245 254 267 267 263 266 272 272 272 272 271 273 274 274 274 273 270 269 270 272 273 273 273 272 272 270 269 268 267 267 267 267 267 267 267 267 267 268 269 270 271 272 273 274 275 275 276 277 277 277 278 278 278 278 278 278 278 278 278 278 279 279 280 280 280 281 281 281 281
220 222 223 223 224 225 229 233 234 231 228 231 234 236 238 241 244 252 263 269 267 270 274 272 270 270 269 268 269 269 268 268 268 268 269 270 271 273 274 273 273 271 269 268 266 265 265 265 266 267 268 269 270 271 272 272 273 273 273 274 274 274 275 275 276 276 277 277 278 278 278 277 277 277 277 276 277 277 278 278 279 279 280 280 280 280
224 225 226 224 224 225 227 229 231 230 228 231 235 239 244 250 258 265 268 267 267 269 266 263 263 263 261 262 263 264 264 265 266 268 269 270 272 273 273 273 272 270 269 267 266 265 266 266 267 268 269 270 272 273 274 274 275 275 276 277 277 277 277 278 278 278 278 278 278 278 278 277 277 276 276 276 277 277 278 279 279 280 280 280 280 280
228 230 231 229 228 229 229 229 231 235 235 237 242 249 258 265 266 265 263 263 263 262 260 259 260 259 260 262 263 263 263 263 264 267 268 269 270 271 272 272 271 270 268 266 266 266 266 267 268 269 269 270 271 272 273 274 275 276 277 278 279 280 280 280 281 280 280 280 279 278 278 276 276 275 276 277 278 279 279 280 280 280 280 279 279 279
228 230 232 233 234 236 237 237 240 243 245 249 253 256 261 263 263 263 264 263 263 262 261 260 259 260 262 263 264 266 265 263 263 265 266 267 268 269 269 270 270 269 267 266 266 266 266 267 268 269 270 270 270 271 272 273 275 276 278 279 280 281 282 282 282 282 281 281 280 279 278 277 276 277 278 280 281 281 281 281 280 280 279 279 279 279
231 231 233 235 237 239 240 240 240 242 244 247 251 253 257 259 260 262 263 262 262 261 258 256 256 257 258 260 262 263 263 262 262 262 262 264 265 265 266 267 267 268 268 268 268 268 268 269 269 270 270 270 271 271 272 273 275 276 278 280 281 283 283 283 283 283 283 282 281 280 279 278 278 279 280 281 282 283 282 282 281 281 280 280 280 280
231 233 235 236 237 239 239 239 240 242 245 248 251 254 256 257 257 260 262 262 262 261 259 258 256 254 254 255 256 256 257 259 259 259 259 261 262 263 264 264 265 266 267 269 270 270 271 271 271 271 271 271 271 272 273 274 276 278 280 282 283 285 285 284 284 283 283 283 282 282 282 281 281 281 282 282 283 283 283 283 282 282 282 282 282 282
233 233 235 237 239 242 243 243 245 246 247 248 250 253 254 256 258 260 262 264 264 264 263 262 259 256 255 254 254 255 256 257 259 259 260 259 260 261 262 263 264 266 268 270 272 273 274 274 273 273 272 272 273 273 274 276 277 280 283 285 286 287 287 286 285 284 283 283 283 283 283 283 284 284 284 284 284 284 284 284 283 283 283 283 283 283
237 236 237 240 244 245 245 245 246 246 246 246 248 251 255 259 261 263 264 266 267 266 264 261 259 258 257 256 256 257 258 259 260 260 260 260 259 260 260 261 263 266 269 272 274 275 276 277 276 275 274 274 274 275 275 276 278 281 284 285 287 289 288 287 285 284 283 283 284 284 285 285 285 285 286 286 286 286 286 286 286 286 285 285 285 285
234 236 237 240 241 241 242 243 244 246 248 250 252 256 259 261 263 263 264 265 264 261 259 258 258 259 259 259 259 259 259 259 259 259 259 259 259 259 260 261 263 266 269 273 275 276 277 277 277 277 276 276 276 276 276 277 278 280 282 283 286 288 287 285 283 282 282 283 284 285 286 286 287 287 287 288 288 288 288 288 288 288 287 287 287 287
234 236 239 242 244 245 246 247 247 248 250 252 253 255 257 257 258 259 259 259 257 255 254 255 256 257 257 258 258 258 259 258 258 257 258 258 258 260 261 263 264 267 270 273 275 276 277 277 277 277 277 277 277 276 277 277 278 279 280 281 283 285 284 283 282 280 280 282 283 285 286 286 287 288 288 288 288 288 289 289 289 289 288 288 288 288
Height
5789 5791 5794 5797 5802 5808 5814 5818 5820 5821 5823 5824 5826 5828 5830 5831 5832 5833 5835 5837 5839 5841 5843 5845 5848 5852 5856 5856 5855 5857 5861 5864 5866 5868 5870 5872 5874 5875 5876 5877 5878 5880 5880 5878 5880 5883 5884 5885 5887 5888 5890 5891 5892 5893 5894 5895 5895 5895 5896 5897 5897 5897 5897 5898 5899 5899 5899 5899 5899 5899 5899 5899 5898 5898 5898 5898 5898 5898 5897 5897 5896 5896 5895 5895 5895 5894
5786 5788 5792 5796 5801 5806 5810 5813 5814 5817 5819 5821 5822 5825 5827 5828 5830 5831 5833 5834 5836 5838 5840 5842 5844 5848 5853 5855 5853 5853 5857 5861 5863 5865 5867 5869 5871 5872 5874 5875 5877 5877 5877 5877 5879 5881 5882 5884 5885 5886 5887 5889 5890 5891 5891 5892 5892 5892 5893 5894 5894 5894 5895 5896 5896 5897 5897 5897 5897 5897 5897 5897 5897 5897 5896 5896 5895 5895 5895 5894 5894 5893 5893 5893 5893 5892
5782 5786 5790 5794 5797 5802 5806 5808 5810 5813 5816 5817 5819 5821 5823 5826 5829 5830 5831 5832 5833 5836 5838 5839 5841 5844 5848 5852 5852 5850 5854 5858 5860 5861 5863 5866 5868 5870 5873 5874 5874 5875 5875 5876 5878 5879 5880 5881 5882 5883 5885 5886 5887 5887 5888 5889 5890 5890 5891 5892 5891 5892 5893 5893 5893 5894 5894 5894 5894 5895 5895 5895 5895 5895 5894 5894 5893 5893 5892 5892 5891 5891 5891 5891 5891 5890
5780 5785 5790 5793 5796 5800 5804 5806 5807 5810 5812 5814 5816 5818 5820 5824 5827 5827 5828 5830 5831 5833 5836 5837 5838 5841 5844 5848 5849 5848 5850 5854 5856 5857 5860 5862 5865 5868 5870 5871 5872 5872 5873 5874 5876 5876 5878 5879 5880 5881 5882 5882 5883 5884 5886 5887 5887 5887 5888 5888 5889 5890 5890 5891 5891 5891 5891 5891 5892 5893 5893 5893 5893 5893 5892 5891 5890 5890 5889 5889 5889 5889 5888 5888 5888 5887
5778 5783 5787 5791 5794 5798 5801 5803 5804 5806 5809 5811 5813 5815 5818 5821 5824 5825 5826 5827 5828 5830 5832 5834 5835 5838 5841 5844 5847 5846 5846 5850 5852 5854 5856 5859 5862 5865 5866 5868 5869 5870 5871 5872 5873 5874 5875 5876 5877 5878 5878 5879 5881 5882 5883 5883 5883 5884 5885 5886 5886 5887 5888 5888 5888 5888 5888 5889 5889 5890 5890 5890 5890 5890 5889 5888 5887 5887 5886 5886 5886 5886 5885 5885 5884 5884
5774 5778 5782 5786 5790 5794 5796 5799 5800 5802 5805 5807 5810 5812 5815 5818 5821 5823 5823 5825 5826 5826 5828 5830 5831 5835 5838 5841 5844 5844 5842 5846 5849 5850 5853 5855 5858 5860 5862 5865 5866 5867 5868 5869 5870 5870 5871 5873 5874 5875 5876 5877 5879 5879 5879 5879 5879 5881 5882 5883 5883 5884 5885 5886 5886 5885 5885 5886 5886 5887 5887 5887 5887 5886 5885 5884 5884 5883 5883 5882 5882 5882 5882 5882 5881 5880
5770 5775 5778 5782 5786 5790 5792 5794 5796 5798 5800 5803 5807 5810 5812 5815 5818 5820 5821 5821 5822 5823 5825 5827 5827 5831 5836 5838 5840 5840 5839 5842 5845 5847 5849 5852 5853 5856 5859 5862 5863 5864 5865 5866 5866 5866 5867 5869 5870 5871 5873 5874 5875 5875 5874 5875 5877 5878 5879 5879 5880 5881 5882 5882 5882 5882 5883 5883 5883 5883 5883 5883 5883 5883 5882 5880 5880 5880 5879 5879 5879 5879 5878 5878 5877 5877
5768 5771 5774 5778 5783 5787 5790 5793 5795 5796 5798 5802 5806 5808 5809 5812 5814 5815 5816 5817 5819 5821 5822 5823 5823 5825 5831 5836 5835 5836 5837 5838 5841 5844 5846 5848 5850 5852 5855 5858 5860 5861 5861 5862 5862 5862 5863 5864 5866 5868 5869 5869 5870 5870 5871 5872 5874 5874 5875 5875 5876 5877 5878 5879 5879 5879 5880 5880 5880 5880 5879 5879 5879 5879 5878 5877 5877 5877 5876 5875 5875 5875 5874 5874 5874 5873
5765 5769 5773 5777 5780 5784 5789 5791 5793 5794 5795 5799 5802 5803 5805 5808 5809 5810 5811 5813 5815 5817 5818 5819 5819 5819 5825 5832 5833 5832 5834 5835 5837 5840 5842 5844 5847 5849 5852 5854 5856 5856 5857 5857 5858 5859 5859 5861 5863 5864 5864 5865 5866 5867 5868 5869 5870 5870 5871 5872 5873 5874 5875 5875 5875 5876 5876 5877 5876 5876 5876 5876 5876 5875 5874 5873 5873 5873 5873 5872 5871 5871 5870 5870 5870 5869
5761 5766 5770 5773 5776 5781 5785 5786 5787 5790 5792 5795 5797 5799 5801 5802 5804 5805 5806 5809 5810 5812 5814 5816 5817 5815 5819 5828 5830 5829 5831 5832 5833 5835 5837 5839 5842 5845 5847 5850 5852 5852 5853 5853 5854 5855 5856 5857 5859 5860 5861 5862 5863 5864 5865 5866 5866 5867 5867 5868 5869 5870 5870 5871 5871 5872 5872 5873 5873 5873 5873 5873 5872 5871 5870 5870 5870 5870 5869 5868 5867 5866 5866 5866 5865 5865
5756 5761 5764 5767 5772 5776 5778 5779 5781 5784 5786 5788 5791 5793 5795 5797 5799 5800 5801 5804 5805 5807 5810 5813 5816 5814 5815 5823 5828 5827 5828 5829 5829 5830 5833 5834 5837 5839 5843 5845 5847 5848 5848 5849 5851 5852 5853 5854 5855 5857 5858 5859 5860 5860 5861 5862 5862 5863 5863 5864 5865 5865 5866 5866 5867 5867 5868 5868 5869 5869 5869 5869 5869 5868 5867 5867 5866 5866 5865 5864 5863 5862 5862 5862 5861 5860
5752 5756 5759 5763 5767 5770 5772 5774 5777 5780 5781 5783 5785 5788 5790 5792 5793 5795 5797 5798 5800 5804 5807 5811 5815 5814 5813 5820 5826 5826 5825 5825 5825 5826 5829 5831 5832 5834 5836 5839 5842 5843 5844 5846 5847 5848 5849 5850 5851 5852 5854 5855 5855 5856 5857 5857 5858 5858 5859 5860 5860 5861 5862 5862 5862 5863 5863 5864 5864 5865 5865 5865 5864 5863 5863 5863 5862 5862 5861 5860 5859 5858 5858 5857 5857 5856
5747 5751 5754 5759 5762 5764 5767 5770 5774 5776 5777 5779 5781 5783 5785 5787 5789 5791 5793 5794 5797 5802 5806 5809 5812 5813 5813 5816 5821 5823 5823 5822 5822 5823 5824 5826 5827 5828 5830 5833 5836 5839 5840 5842 5843 5844 5845 5846 5846 5847 5849 5850 5851 5852 5852 5853 5853 5854 5855 5856 5857 5857 5857 5857 5858 5858 5859 5859 5860 5860 5860 5860 5859 5859 5859 5858 5858 5857 5856 5856 5855 5854 5853 5853 5852 5851
5741 5744 5748 5753 5756 5759 5762 5766 5770 5772 5775 5776 5778 5782 5784 5786 5788 5790 5793 5795 5798 5802 5805 5807 5808 5809 5812 5813 5814 5817 5819 5819 5819 5819 5819 5821 5822 5823 5825 5827 5829 5833 5835 5837 5838 5840 5840 5841 5842 5843 5844 5845 5846 5847 5848 5848 5849 5850 5851 5852 5853 5853 5853 5853 5854 5854 5854 5854 5854 5854 5854 5854 5854 5854 5854 5853 5853 5852 5852 5851 5850 5849 5849 5848 5847 5846
5739 5742 5748 5752 5754 5758 5760 5764 5768 5770 5773 5775 5777 5779 5782 5784 5786 5787 5790 5792 5795 5798 5799 5802 5802 5804 5809 5811 5810 5812 5815 5816 5816 5815 5815 5815 5816 5817 5819 5821 5823 5825 5828 5831 5833 5834 5835 5836 5837 5838 5839 5840 5841 5843 5843 5844 5845 5846 5847 5848 5848 5849 5849 5849 5849 5849 5849 5850 5849 5849 5849 5849 5849 5849 5849 5848 5848 5847 5846 5846 5845 5844 5844 5843 5842 5841
5736 5742 5748 5751 5753 5756 5758 5761 5764 5766 5768 5769 5771 5773 5776 5779 5780 5782 5785 5787 5790 5792 5794 5796 5798 5802 5806 5808 5807 5808 5810 5812 5811 5811 5811 5810 5810 5812 5814 5815 5816 5818 5821 5823 5826 5828 5829 5831 5832 5833 5834 5836 5837 5838 5839 5840 5841 5842 5843 5843 5844 5844 5844 5844 5845 5845 5845 5845 5845 5845 5845 5845 5844 5844 5844 5843 5843 5842 5841 5840 5840 5840 5839 5838 5837 5836
5731 5737 5741 5744 5747 5749 5752 5755 5758 5760 5763 5764 5766 5770 5774 5776 5777 5779 5782 5784 5786 5787 5789 5792 5795 5799 5802 5803 5804 5804 5805 5807 5807 5806 5806 5806 5806 5807 5808 5809 5810 5812 5814 5816 5819 5822 5824 5826 5827 5828 5830 5831 5832 5833 5835 5835 5836 5837 5838 5838 5839 5839 5839 5839 5840 5840 5840 5840 5840 5840 5840 5840 5840 5839 5839 5839 5838 5837 5836 5836 5835 5835 5834 5833 5832 5831
5729 5733 5736 5739 5741 5744 5747 5750 5753 5756 5758 5760 5765 5770 5772 5772 5774 5777 5778 5779 5781 5781 5784 5787 5790 5795 5797 5799 5801 5801 5800 5801 5801 5801 5801 5801 5801 5802 5803 5804 5805 5807 5809 5811 5813 5815 5818 5821 5822 5824 5825 5826 5828 5829 5830 5831 5832 5832 5833 5833 5834 5834 5834 5834 5834 5835 5835 5835 5835 5835 5835 5835 5835 5835 5834 5834 5833 5832 5832 5831 5831 5830 5829 5828 5827 5825
5725 5729 5732 5735 5737 5739 5743 5744 5747 5751 5754 5757 5762 5765 5765 5766 5769 5772 5772 5774 5776 5777 5780 5783 5786 5790 5793 5795 5798 5797 5796 5795 5795 5796 5796 5796 5797 5797 5798 5799 5800 5802 5804 5806 5808 5810 5813 5815 5817 5818 5820 5821 5822 5823 5824 5825 5826 5826 5827 5828 5828 5828 5829 5829 5830 5830 5830 5830 5830 5830 5830 5830 5830 5829 5829 5828 5828 5827 5827 5826 5825 5824 5824 5822 5821 5820
5718 5721 5725 5729 5731 5733 5735 5738 5743 5747 5749 5753 5755 5757 5758 5760 5763 5766 5767 5770 5772 5774 5776 5778 5781 5786 5790 5793 5793 5793 5792 5791 5789 5789 5790 5790 5791 5793 5794 5794 5795 5796 5798 5800 5802 5804 5806 5808 5810 5812 5813 5815 5816 5817 5818 5819 5819 5820 5821 5822 5822 5823 5823 5824 5824 5824 5825 5825 5825 5825 5825 5825 5824 5824 5823 5823 5822 5821 5821 5820 5819 5819 5818 5817 5815 5814
5712 5715 5719 5723 5725 5727 5730 5736 5741 5743 5746 5750 5751 5753 5756 5757 5760 5762 5764 5766 5768 5769 5771 5773 5776 5783 5788 5789 5788 5788 5788 5787 5785 5784 5784 5785 5786 5789 5790 5789 5788 5789 5791 5793 5795 5797 5799 5801 5803 5805 5807 5808 5809 5811 5812 5813 5814 5815 5815 5816 5816 5817 5818 5818 5819 5819 5819 5819 5820 5820 5820 5819 5819 5818 5818 5817 5817 5816 5815 5815 5814 5813 5812 5811 5810 5809
5706 5710 5714 5717 5720 5724 5729 5734 5737 5739 5742 5745 5747 5750 5753 5754 5756 5758 5759 5762 5764 5765 5767 5769 5771 5778 5783 5783 5784 5785 5784 5783 5782 5780 5780 5781 5783 5785 5785 5785 5784 5784 5785 5786 5788 5790 5793 5795 5797 5799 5801 5803 5804 5805 5806 5807 5808 5808 5809 5810 5810 5811 5812 5812 5813 5813 5814 5814 5814 5814 5814 5813 5813 5813 5812 5811 5811 5810 5810 5809 5808 5807 5806 5806 5805 5803
5699 5704 5708 5711 5716 5720 5724 5728 5731 5734 5737 5740 5742 5746 5747 5747 5749 5751 5753 5756 5758 5760 5764 5765 5766 5773 5779 5779 5780 5781 5780 5779 5779 5778 5777 5777 5778 5779 5780 5780 5780 5779 5780 5781 5782 5784 5786 5789 5791 5793 5795 5797 5798 5799 5800 5801 5801 5802 5803 5804 5805 5805 5806 5807 5807 5808 5808 5808 5808 5808 5808 5807 5807 5806 5806 5805 5805 5804 5804 5803 5802 5802 5801 5800 5799 5798
5696 5700 5703 5707 5711 5715 5719 5724 5726 5729 5732 5734 5737 5740 5739 5740 5744 5747 5749 5753 5754 5757 5761 5762 5763 5770 5775 5776 5777 5776 5775 5774 5774 5774 5773 5773 5773 5773 5774 5775 5776 5776 5776 5777 5778 5779 5781 5783 5785 5787 5789 5791 5792 5794 5794 5795 5796 5797 5798 5798 5799 5800 5800 5801 5801 5801 5801 5801 5801 5801 5801 5801 5800 5800 5799 5799 5798 5798 5797 5797 5796 5796 5795 5794 5793 5792
5692 5693 5697 5702 5705 5708 5713 5716 5719 5723 5726 5729 5732 5733 5734 5738 5741 5743 5747 5749 5751 5756 5759 5759 5763 5768 5770 5771 5772 5771 5770 5769 5767 5768 5768 5768 5769 5769 5768 5769 5770 5772 5773 5773 5774 5774 5776 5777 5779 5780 5782 5784 5786 5787 5789 5790 5791 5792 5792 5793 5793 5794 5794 5795 5795 5795 5795 5795 5795 5795 5795 5794 5794 5793 5793 5793 5792 5792 5791 5791 5790 5790 5789 5788 5787 5786
5689 5690 5694 5697 5699 5704 5709 5713 5719 5723 5724 5726 5728 5730 5733 5736 5738 5741 5744 5745 5749 5755 5755 5755 5761 5765 5765 5766 5765 5764 5765 5765 5763 5763 5763 5763 5764 5764 5763 5764 5765 5766 5767 5768 5769 5769 5770 5772 5773 5775 5776 5777 5779 5781 5782 5783 5784 5785 5786 5786 5787 5787 5788 5788 5788 5789 5789 5789 5789 5788 5788 5788 5787 5787 5787 5786 5786 5785 5785 5784 5784 5783 5782 5781 5780 5779
5687 5690 5694 5697 5701 5707 5712 5716 5721 5723 5723 5725 5729 5731 5733 5734 5736 5738 5738 5741 5748 5750 5748 5752 5757 5759 5760 5761 5759 5758 5759 5760 5760 5758 5757 5757 5757 5758 5759 5759 5759 5760 5760 5762 5763 5764 5765 5766 5767 5769 5770 5771 5773 5774 5775 5776 5777 5778 5778 5779 5780 5780 5781 5781 5782 5782 5782 5782 5782 5782 5781 5781 5781 5781 5780 5780 5780 5779 5779 5778 5777 5777 5776 5775 5774 5772
5683 5687 5692 5697 5701 5705 5707 5711 5715 5716 5718 5722 5725 5726 5727 5728 5729 5730 5731 5738 5743 5741 5744 5752 5753 5753 5756 5756 5755 5755 5754 5754 5756 5754 5752 5752 5752 5753 5754 5754 5754 5754 5755 5756 5758 5759 5760 5761 5762 5763 5764 5765 5766 5767 5767 5768 5769 5770 5771 5772 5773 5774 5774 5775 5775 5775 5775 5775 5775 5775 5775 5775 5774 5774 5774 5774 5773 5773 5772 5771 5770 5769 5769 5767 5766 5765
5681 5686 5691 5694 5696 5698 5701 5704 5707 5709 5712 5714 5717 5719 5720 5721 5722 5724 5730 5737 5737 5735 5743 5750 5747 5748 5753 5752 5751 5752 5750 5749 5750 5750 5748 5747 5747 5748 5748 5748 5749 5750 5751 5752 5753 5754 5755 5756 5757 5757 5757 5758 5759 5759 5760 5761 5762 5763 5764 5765 5766 5767 5767 5768 5768 5769 5769 5769 5769 5768 5768 5768 5768 5768 5767 5766 5766 5765 5764 5764 5763 5762 5761 5760 5759 5758
5677 5682 5686 5689 5691 5694 5697 5699 5701 5703 5705 5707 5710 5712 5713 5715 5718 5723 5729 5733 5730 5732 5740 5743 5741 5745 5749 5748 5748 5749 5746 5744 5744 5744 5744 5742 5741 5742 5742 5743 5746 5748 5748 5749 5748 5749 5750 5750 5751 5751 5751 5752 5752 5753 5754 5755 5756 5757 5758 5759 5760 5760 5761 5762 5762 5762 5763 5763 5763 5762 5762 5762 5761 5761 5760 5759 5759 5758 5758 5757 5756 5756 5755 5754 5752 5751
5671 5675 5678 5681 5684 5687 5690 5692 5694 5697 5699 5701 5703 5705 5708 5711 5715 5720 5725 5724 5722 5728 5736 5736 5736 5742 5745 5744 5744 5744 5741 5739 5738 5738 5738 5736 5735 5736 5738 5740 5743 5744 5744 5744 5744 5744 5744 5744 5745 5745 5746 5747 5747 5748 5749 5749 5750 5751 5752 5753 5754 5755 5756 5756 5756 5756 5756 5756 5756 5756 5756 5755 5755 5754 5754 5753 5753 5752 5751 5751 5750 5749 5748 5747 5746 5744
5664 5667 5671 5675 5676 5679 5683 5685 5687 5691 5693 5693 5695 5701 5705 5708 5711 5715 5719 5719 5721 5727 5731 5729 5731 5739 5742 5740 5739 5737 5735 5734 5734 5733 5732 5730 5730 5731 5734 5737 5738 5739 5740 5740 5740 5740 5740 5740 5741 5741 5741 5742 5742 5743 5743 5744 5745 5745 5746 5748 5749 5749 5750 5750 5750 5751 5750 5750 5750 5749 5749 5749 5748 5748 5747 5747 5746 5745 5744 5744 5743 5742 5741 5739 5738 5737
5659 5662 5666 5670 5672 5675 5678 5680 5683 5686 5684 5685 5693 5702 5706 5706 5708 5712 5714 5717 5720 5723 5723 5723 5728 5733 5734 5733 5732 5731 5729 5729 5730 5728 5726 5726 5725 5727 5731 5733 5734 5734 5735 5736 5737 5736 5736 5736 5735 5735 5735 5735 5736 5736 5737 5738 5739 5740 5741 5742 5743 5744 5744 5744 5745 5745 5744 5744 5743 5743 5742 5742 5741 5741 5740 5739 5738 5738 5737 5736 5735 5734 5733 5732 5731 5730
5659 5662 5665 5668 5671 5673 5675 5678 5679 5677 5677 5686 5699 5704 5702 5703 5706 5708 5711 5714 5716 5716 5716 5719 5723 5725 5726 5727 5728 5726 5724 5724 5724 5723 5723 5723 5722 5723 5726 5727 5728 5729 5730 5731 5732 5731 5731 5730 5729 5729 5729 5729 5730 5731 5732 5733 5734 5735 5736 5737 5737 5738 5738 5738 5738 5738 5738 5737 5737 5736 5736 5735 5735 5734 5733 5732 5731 5731 5730 5729 5728 5728 5727 5726 5725 5724
5658 5661 5664 5666 5669 5669 5671 5672 5671 5671 5680 5694 5701 5698 5698 5702 5704 5704 5706 5708 5708 5708 5709 5713 5717 5720 5722 5723 5722 5720 5719 5718 5716 5717 5719 5719 5720 5720 5720 5721 5723 5725 5726 5727 5727 5726 5725 5724 5724 5724 5725 5726 5727 5728 5728 5729 5729 5730 5730 5730 5730 5731 5731 5731 5731 5731 5731 5731 5730 5730 5729 5729 5728 5727 5726 5726 5725 5724 5724 5723 5722 5721 5720 5720 5719 5718
5652 5655 5658 5661 5662 5663 5665 5666 5668 5675 5686 5693 5692 5692 5694 5697 5697 5696 5697 5700 5701 5702 5705 5709 5714 5717 5716 5716 5715 5713 5711 5708 5709 5714 5718 5717 5717 5717 5717 5718 5719 5719 5721 5721 5721 5721 5721 5721 5722 5722 5722 5723 5723 5723 5723 5723 5723 5723 5723 5723 5724 5724 5724 5724 5724 5724 5724 5724 5723 5723 5723 5722 5722 5721 5720 5720 5719 5718 5718 5717 5716 5715 5714 5713 5712 5711
5644 5648 5652 5654 5655 5658 5661 5663 5668 5675 5680 5682 5684 5687 5688 5689 5690 5690 5691 5695 5698 5699 5701 5705 5708 5709 5709 5709 5708 5705 5703 5700 5704 5713 5716 5713 5712 5712 5713 5714 5715 5714 5715 5716 5716 5717 5717 5717 5718 5718 5718 5718 5718 5718 5718 5717 5717 5718 5717 5717 5718 5718 5718 5718 5718 5718 5718 5717 5717 5717 5716 5716 5716 5715 5714 5714 5713 5712 5711 5710 5709 5709 5707 5707 5706 5704
5636 5640 5645 5646 5648 5653 5655 5658 5662 5665 5669 5675 5680 5682 5682 5684 5686 5686 5685 5688 5693 5694 5695 5699 5701 5703 5705 5703 5699 5698 5696 5695 5702 5713 5712 5705 5704 5706 5708 5710 5710 5709 5710 5711 5711 5712 5712 5712 5713 5713 5713 5713 5712 5712 5712 5712 5712 5712 5712 5712 5712 5712 5712 5712 5712 5712 5712 5711 5711 5711 5711 5710 5710 5709 5708 5707 5707 5706 5705 5704 5703 5702 5701 5700 5699 5698
5629 5633 5638 5638 5640 5645 5648 5650 5653 5655 5663 5673 5675 5677 5679 5680 5682 5681 5679 5684 5691 5691 5690 5692 5696 5698 5698 5694 5691 5691 5691 5692 5701 5709 5705 5698 5698 5701 5703 5705 5705 5704 5705 5706 5706 5707 5707 5707 5708 5708 5708 5708 5707 5707 5707 5707 5707 5707 5706 5706 5707 5706 5707 5706 5706 5706 5706 5705 5705 5705 5705 5704 5703 5703 5702 5701 5700 5699 5699 5698 5697 5696 5695 5694 5693 5692
5620 5624 5626 5628 5633 5639 5641 5642 5644 5650 5661 5667 5667 5670 5673 5674 5675 5674 5673 5681 5688 5687 5686 5689 5690 5691 5689 5686 5686 5687 5688 5691 5697 5700 5697 5693 5693 5694 5696 5698 5699 5699 5701 5701 5701 5702 5701 5702 5702 5702 5702 5702 5702 5702 5702 5702 5702 5701 5701 5701 5701 5701 5701 5701 5700 5700 5700 5700 5699 5699 5698 5698 5697 5697 5696 5695 5694 5693 5692 5691 5690 5689 5689 5687 5686 5685
5611 5614 5618 5623 5629 5633 5635 5637 5641 5648 5657 5659 5658 5662 5665 5664 5664 5664 5668 5677 5682 5682 5684 5686 5683 5683 5683 5682 5683 5685 5686 5688 5690 5690 5689 5688 5688 5688 5689 5691 5692 5694 5695 5695 5695 5696 5695 5696 5696 5696 5696 5696 5696 5697 5697 5696 5696 5696 5695 5695 5695 5695 5695 5694 5694 5694 5693 5693 5692 5692 5691 5691 5690 5689 5688 5687 5687 5686 5685 5684 5683 5682 5681 5680 5679 5677
5605 5609 5612 5617 5622 5626 5630 5634 5638 5645 5652 5653 5651 5654 5655 5654 5655 5660 5667 5674 5676 5678 5681 5680 5676 5677 5678 5677 5678 5679 5679 5680 5681 5681 5682 5682 5682 5682 5683 5684 5686 5687 5688 5688 5688 5689 5689 5690 5690 5690 5690 5691 5691 5691 5691 5690 5690 5690 5689 5689 5689 5689 5688 5688 5688 5687 5687 5686 5686 5685 5684 5684 5683 5682 5681 5680 5680 5679 5678 5677 5676 5675 5674 5673 5672 5670
5604 5606 5608 5612 5617 5621 5624 5627 5632 5641 5647 5646 5644 5647 5650 5651 5656 5662 5667 5669 5671 5673 5673 5671 5669 5669 5669 5671 5671 5671 5672 5673 5673 5674 5676 5677 5677 5677 5677 5678 5679 5680 5681 5681 5681 5682 5683 5683 5684 5684 5685 5685 5685 5685 5685 5684 5684 5683 5683 5683 5683 5682 5682 5682 5682 5681 5681 5680 5679 5678 5678 5677 5676 5675 5674 5673 5673 5672 5671 5670 5669 5668 5667 5666 5664 5663
5601 5603 5606 5611 5615 5615 5617 5622 5630 5638 5642 5642 5642 5646 5650 5652 5654 5657 5659 5661 5664 5665 5664 5664 5662 5662 5663 5664 5664 5664 5666 5667 5668 5669 5670 5671 5672 5672 5672 5672 5673 5674 5675 5675 5675 5676 5677 5677 5677 5678 5678 5678 5678 5678 5678 5678 5677 5677 5677 5677 5676 5676 5676 5676 5675 5675 5674 5673 5673 5672 5671 5670 5669 5669 5668 5667 5666 5665 5664 5663 5662 5661 5660 5658 5657 5656
5594 5599 5603 5607 5610 5611 5616 5623 5631 5636 5638 5639 5641 5644 5646 5647 5647 5648 5650 5653 5655 5656 5656 5657 5656 5656 5657 5658 5658 5659 5660 5661 5663 5664 5665 5665 5666 5666 5666 5666 5666 5666 5668 5669 5669 5670 5670 5671 5671 5671 5672 5672 5672 5672 5672 5672 5671 5671 5671 5670 5670 5670 5669 5669 5669 5668 5667 5667 5666 5665 5665 5664 5663 5662 5661 5660 5659 5658 5657 5656 5655 5654 5653 5651 5650 5649
5592 5595 5599 5602 5605 5608 5613 5620 5625 5629 5630 5632 5634 5636 5639 5641 5641 5641 5642 5644 5645 5646 5648 5648 5649 5650 5651 5651 5652 5653 5654 5655 5657 5658 5658 5659 5660 5660 5660 5660 5660 5660 5660 5661 5662 5663 5664 5664 5665 5665 5665 5665 5666 5666 5666 5666 5665 5665 5664 5664 5664 5663 5663 5662 5662 5661 5660 5660 5659 5658 5658 5657 5656 5655 5654 5653 5652 5651 5650 5649 5647 5646 5645 5644 5643 5641
5588 5590 5593 5596 5599 5602 5608 5615 5620 5622 5624 5626 5628 5629 5631 5633 5634 5634 5635 5636 5638 5639 5640 5642 5643 5644 5645 5645 5646 5647 5647 5649 5650 5651 5652 5653 5653 5654 5654 5654 5653 5654 5653 5654 5655 5655 5656 5657 5658 5658 5659 5659 5659 5659 5659 5659 5658 5658 5657 5657 5657 5657 5656 5655 5655 5654 5653 5652 5652 5651 5650 5649 5648 5647 5646 5645 5644 5643 5642 5641 5640 5639 5638 5637 5635 5634
5584 5586 5587 5590 5594 5599 5606 5612 5615 5616 5618 5620 5621 5621 5622 5624 5627 5629 5630 5630 5632 5634 5635 5637 5637 5638 5639 5639 5640 5640 5642 5643 5644 5645 5646 5647 5647 5648 5648 5647 5647 5647 5647 5647 5647 5648 5649 5650 5651 5651 5652 5652 5652 5652 5652 5651 5651 5650 5650 5650 5649 5649 5649 5648 5647 5646 5645 5645 5644 5643 5642 5641 5640 5639 5638 5637 5636 5635 5634 5633 5632 5631 5630 5629 5627 5626
5579 5580 5583 5587 5591 5595 5600 5605 5606 5607 5610 5612 5613 5615 5617 5620 5622 5624 5625 5626 5627 5628 5629 5630 5630 5631 5632 5633 5634 5635 5637 5638 5639 5640 5640 5640 5641 5641 5641 5641 5641 5641 5640 5641 5641 5641 5642 5642 5643 5644 5644 5644 5644 5644 5644 5644 5644 5644 5643 5643 5642 5642 5641 5640 5639 5638 5637 5636 5636 5634 5634 5633 5632 5631 5630 5629 5628 5627 5626 5625 5624 5623 5622 5620 5619 5618
5571 5574 5579 5581 5583 5587 5593 5597 5598 5600 5604 5607 5610 5613 5615 5616 5617 5618 5620 5620 5621 5621 5622 5622 5623 5624 5625 5626 5628 5630 5631 5632 5633 5633 5633 5634 5634 5634 5634 5634 5634 5634 5634 5634 5634 5635 5635 5635 5635 5636 5636 5636 5636 5636 5636 5636 5636 5637 5637 5637 5636 5635 5634 5633 5632 5631 5629 5628 5627 5626 5625 5624 5623 5622 5622 5621 5620 5619 5618 5617 5616 5615 5614 5612 5610 5609
5566 5570 5573 5574 5577 5585 5590 5592 5593 5596 5600 5604 5607 5608 5608 5608 5609 5611 5612 5613 5613 5613 5614 5614 5614 5616 5617 5618 5620 5622 5623 5624 5625 5626 5626 5626 5626 5627 5627 5627 5628 5628 5629 5628 5628 5628 5628 5628 5628 5628 5628 5628 5628 5628 5628 5628 5629 5630 5630 5630 5630 5628 5627 5626 5624 5623 5622 5621 5619 5618 5618 5616 5615 5615 5614 5613 5612 5611 5610 5609 5608 5606 5605 5604 5602 5601